sat.trackr.live / text

‹ back to catalog

STARLINK-2712

NORAD 48674 · 2021-044AN

PAYLOAD ACTIVE UNKNOWN

§ Identity

Operator
Country
US
Launch date
2021-05-26
Launch site
AFETR
Launch vehicle
Mass (kg)
RCS (m²)

Purposes: comms

External: N2YO · Heavens-Above · Gunter

§ Orbital elements

Epoch: 2026-09-09T12:13:25.567680Z

Period
94.01 min
Inclination
53.1610°
Eccentricity
0.0000957
Mean motion
15.31708974 rev/d
Perigee alt
470.1 km
Apogee alt
471.4 km
Semi-major
6,848.9 km
B*
7.3896e-5
RAAN
340.1009°
Arg perigee
87.0838°
Mean anomaly
273.0273°
Rev number
29,195

§ Raw data

STARLINK-27121 48674U 21044AN  26252.50932370  .00001929  00000+0  73896-4 0  99932 48674  53.1610 340.1009 0000957  87.0838 273.0273 15.31708974291954

JSON: /api/v1/satellites/48674 · /tle

For live sub-satellite position, see the globe view (requires WebGL).

§ Visibility from observer

Set your observer location to see the next 7 days of passes ≥ 10°. The values pass through the URL so the page stays shareable.

No JS? Fill the form by hand. The geolocation button needs JavaScript.